TimeEST,TemperatureF,Dew PointF,Humidity,Sea Level PressureIn,VisibilityMPH,Wind Direction,Wind SpeedMPH,Gust SpeedMPH,PrecipitationIn,Events,Conditions,WindDirDegrees,DateUTC
12:51 AM,36.0,23.0,59,30.26,10.0,SW,8.1,-,N/A,,Partly Cloudy,220,2012-11-30 05:51:00
1:51 AM,35.1,23.0,61,30.27,10.0,SW,4.6,-,N/A,,Clear,230,2012-11-30 06:51:00
2:51 AM,35.1,23.0,61,30.28,10.0,SSW,4.6,-,N/A,,Clear,210,2012-11-30 07:51:00
3:51 AM,32.0,23.0,69,30.29,10.0,South,4.6,-,N/A,,Clear,190,2012-11-30 08:51:00
4:51 AM,32.0,21.9,66,30.30,10.0,Calm,Calm,-,N/A,,Partly Cloudy,0,2012-11-30 09:51:00
5:51 AM,30.0,21.9,72,30.34,10.0,NNE,3.5,-,N/A,,Scattered Clouds,20,2012-11-30 10:51:00
6:51 AM,30.0,21.9,72,30.37,10.0,NNW,3.5,-,N/A,,Scattered Clouds,330,2012-11-30 11:51:00
7:51 AM,33.1,26.1,75,30.40,10.0,North,6.9,-,N/A,,Overcast,360,2012-11-30 12:51:00
8:51 AM,35.1,26.1,70,30.43,10.0,North,9.2,-,N/A,,Overcast,10,2012-11-30 13:51:00
9:51 AM,36.0,24.1,62,30.45,10.0,North,10.4,-,N/A,,Overcast,10,2012-11-30 14:51:00
10:51 AM,36.0,21.0,55,30.45,10.0,NNE,9.2,-,N/A,,Overcast,20,2012-11-30 15:51:00
11:51 AM,34.0,19.0,54,30.45,10.0,North,13.8,-,N/A,,Overcast,360,2012-11-30 16:51:00
12:51 PM,34.0,18.0,52,30.43,10.0,North,11.5,-,N/A,,Overcast,10,2012-11-30 17:51:00
1:51 PM,34.0,17.1,50,30.44,10.0,North,10.4,-,N/A,,Overcast,10,2012-11-30 18:51:00
2:51 PM,33.1,15.1,48,30.45,10.0,North,10.4,-,N/A,,Overcast,10,2012-11-30 19:51:00
3:51 PM,30.0,17.1,59,30.46,10.0,NNE,9.2,-,N/A,,Overcast,20,2012-11-30 20:51:00
4:33 PM,30.2,15.8,55,30.46,10.0,NNE,6.9,-,N/A,,Overcast,20,2012-11-30 21:33:00
4:51 PM,30.0,14.0,51,30.47,10.0,North,4.6,-,N/A,,Overcast,10,2012-11-30 21:51:00
5:14 PM,30.2,12.2,47,30.47,10.0,North,4.6,-,N/A,,Overcast,350,2012-11-30 22:14:00
5:51 PM,30.9,12.9,47,30.48,10.0,North,5.8,-,N/A,,Overcast,350,2012-11-30 22:51:00
6:51 PM,30.9,10.9,43,30.50,10.0,North,6.9,-,N/A,,Overcast,10,2012-11-30 23:51:00
7:51 PM,30.9,7.0,37,30.51,10.0,North,5.8,-,N/A,,Overcast,10,2012-12-01 00:51:00
8:51 PM,30.9,6.1,35,30.51,10.0,North,5.8,-,N/A,,Overcast,10,2012-12-01 01:51:00
9:51 PM,30.9,7.0,37,30.52,10.0,North,6.9,-,N/A,,Overcast,360,2012-12-01 02:51:00
10:51 PM,30.9,6.1,35,30.52,10.0,North,4.6,-,N/A,,Overcast,360,2012-12-01 03:51:00
11:51 PM,30.9,8.1,38,30.53,10.0,North,4.6,-,0.00,Snow,Light Snow,10,2012-12-01 04:51:00